Powrót do katalogu

OPS 4682 DEB

LostPO
NORAD 38435·DEBRIS·🇺🇸 United States

Wystrzelony Apr 3, 1965 z Vandenberg Space Force Base

Loading…

Następne Przeloty (najbliższe 24 godziny)

TLE

NieaktualneSource: Space-Track

Epoka: Sep 20, 2014, 06:15 UTC

1 38435U 65027EQ  14263.26088209 +.00000775 +00000-0 +26490-2 0  9996
2 38435 090.2765 263.2550 0045385 113.2304 247.3605 12.96996888584725

Śledź OPS 4682 DEB w czasie rzeczywistym z AllMySat

Download on the App Store